Eppley Airfield
KOMA : now visible

Airfield :











YOU CAN JOIN US ON...

 
LOGIN :

Register | Disclaimer

   EN    FR    IT 

 









Legend :    VFR   Marginal VFR   IFR   Intensive IFR   Very Intensive IFR
Visi :
Ceiling :
>= 8 km
>= 3000ft
5 to 8 km
1000 to 3000 ft
1500m to 5 km
500 to 1000 ft
800 to 1500m
200 to 500 ft
< 800m
< 200 ft
Symbols :   Thunderstorms  Fog  Heavy snow  Heavy precipitations  Wind > 20 kt






- Airport Elevation : 984 ft
- IATA code : OMA


KOMA - Eppley

CURRENT METAR :
  • 230052Z 36004KT 10SM FEW180 07/03 A3000 RMK AO2 SLP164 T00720028

EXPIRED METARs :
  • 222352Z 08004KT 10SM FEW120 FEW180 11/03 A2999 RMK AO2 SLP160 T01110028 10139 20106 58001
  • 222252Z 10009KT 10SM FEW120 SCT180 13/03 A2999 RMK AO2 SLP160 T01280028

TAF KOMA
Valid from the 23 at 00:00 until the 24 at 00:00 UTC


222331Z 2300/2324 08008KT P6SM FEW250
FM231500 10013KT P6SM SCT200
KZMP FIR / North America



MET'MAP, your aeronautical weather chart ! - Copyright ORBIFLY December 2007 - Disclaimer

ORBIFLY MET'MAP TEAM :

Programming & Development : Alexandra Zaïnal
Concept & original design : Baudouin d'Aumeries
Assistance for programming : Marc-Olivier Méhu
Technical & hardware support : Manuel Goepfert

Contact : metmap@orbifly.com




SOURCES & CREDITS :

   NOAA       Earth
Advisory